Location: Boiro
(42.6475°N, 8.8834°W)
Time: 00:16:17
(UTC+01:00)

Altair - Pass Details

Date: 30 November 2021
Orbit: 1501 x 1683 km, 47.2° (Epoch: 18 January)

Event Time Altitude Azimuth Distance (km) Brightness Sun altitude
Rises 22:04:43 0° 286° (WNW) 4,678 10.8 -43.7°
Reaches altitude 10° 22:07:48 10° 289° (WNW) 3,680 10.1 -44.3°
Enters shadow 22:13:50 46° 302° (WNW) 1,947 8.1 -45.4°
Maximum altitude 22:17:03 74° 14° (NNE) 1,555 - -45.9°
Drops below altitude 10° 22:26:14 10° 100° (E) 3,661 - -47.6°
Sets 22:29:18 0° 102° (ESE) 4,652 - -48.1°
